• In Hungary
  • List of Countries
  • For 7 days
  • Water Temperature
  • Satellite Maps
  • Weather Map
  • News
  • Weather Widgets
  • user-avatar
    Login

    Hourly Weather Staiky

    Today, 21 October, Saturday

    Time Temperature Precipitation Wind Pressure Humidity
    00:00 +8°C° 0 mm 2 mps 752 mmHg 77%
    01:00 +8°C° 0 mm 2 mps 752 mmHg 77%
    02:00 +8°C° 0 mm 2 mps 752 mmHg 78%
    03:00 +7°C° 0 mm 2 mps 752 mmHg 78%
    04:00 +7°C° 0 mm 2 mps 752 mmHg 78%
    05:00 +7°C° 0 mm 2 mps 752 mmHg 79%
    06:00 +7°C° 0 mm 2 mps 752 mmHg 77%
    07:00 +7°C° 0 mm 2 mps 752 mmHg 75%
    08:00 +7°C° 0 mm 2 mps 752 mmHg 73%
    09:00 +9°C° 0 mm 2 mps 752 mmHg 68%
    10:00 +10°C° 0 mm 2 mps 751 mmHg 63%
    11:00 +13°C° 0 mm 2 mps 751 mmHg 59%
    12:00 +13°C° 0 mm 2 mps 751 mmHg 58%
    13:00 +14°C° 0 mm 2 mps 750 mmHg 57%
    14:00 +15°C° 0 mm 2 mps 750 mmHg 56%
    15:00 +14°C° 0 mm 2 mps 749 mmHg 58%
    16:00 +13°C° 0 mm 2 mps 749 mmHg 61%
    17:00 +13°C° 0 mm 2 mps 748 mmHg 63%
    18:00 +12°C° 0.2 mm 2 mps 748 mmHg 65%
    19:00 +12°C° 0.2 mm 2 mps 748 mmHg 67%
    20:00 +11°C° 0.2 mm 3 mps 748 mmHg 69%
    21:00 +10°C° 0.8 mm 3 mps 747 mmHg 73%
    22:00 +9°C° 0.8 mm 3 mps 747 mmHg 77%
    23:00 +9°C° 0.8 mm 3 mps 747 mmHg 82%

    Tomorrow, 22 October, Sunday

    Time Temperature Precipitation Wind Pressure Humidity
    00:00 +7°C° 0.9 mm 4 mps 747 mmHg 83%
    01:00 +6°C° 0.9 mm 4 mps 747 mmHg 84%
    02:00 +6°C° 0.9 mm 5 mps 747 mmHg 85%
    03:00 +5°C° 0.1 mm 5 mps 747 mmHg 85%
    04:00 +5°C° 0.1 mm 5 mps 748 mmHg 85%
    05:00 +3°C° 0.1 mm 5 mps 748 mmHg 84%
    06:00 +3°C° 0 mm 5 mps 748 mmHg 84%
    07:00 +3°C° 0 mm 5 mps 749 mmHg 83%
    08:00 +3°C° 0 mm 5 mps 750 mmHg 82%
    09:00 +5°C° 0 mm 5 mps 750 mmHg 76%
    10:00 +6°C° 0 mm 5 mps 750 mmHg 71%
    11:00 +7°C° 0 mm 5 mps 751 mmHg 66%
    12:00 +7°C° 0 mm 4 mps 751 mmHg 63%
    13:00 +8°C° 0 mm 4 mps 751 mmHg 60%
    14:00 +8°C° 0 mm 4 mps 751 mmHg 57%
    15:00 +8°C° 0 mm 3 mps 751 mmHg 61%
    16:00 +7°C° 0 mm 3 mps 751 mmHg 64%
    17:00 +6°C° 0 mm 2 mps 751 mmHg 67%
    18:00 +6°C° 0 mm 2 mps 751 mmHg 69%
    19:00 +5°C° 0 mm 2 mps 752 mmHg 71%
    20:00 +5°C° 0 mm 2 mps 752 mmHg 73%
    21:00 +4°C° 0 mm 2 mps 752 mmHg 74%
    22:00 +4°C° 0 mm 2 mps 752 mmHg 75%
    23:00 +3°C° 0 mm 2 mps 753 mmHg 76%

    Day after tomorrow, 23 October, Monday

    Time Temperature Precipitation Wind Pressure Humidity
    00:00 +3°C° 0 mm 2 mps 753 mmHg 77%
    01:00 +3°C° 0 mm 2 mps 753 mmHg 79%
    02:00 +3°C° 0 mm 2 mps 753 mmHg 80%
    03:00 +2°C° 0 mm 2 mps 753 mmHg 81%
    04:00 +2°C° 0 mm 2 mps 753 mmHg 82%
    05:00 +2°C° 0 mm 2 mps 752 mmHg 83%
    06:00 +2°C° 0 mm 2 mps 752 mmHg 82%
    07:00 +3°C° 0 mm 2 mps 753 mmHg 80%
    08:00 +2°C° 0 mm 3 mps 753 mmHg 79%
    09:00 +4°C° 0 mm 3 mps 753 mmHg 72%
    10:00 +5°C° 0 mm 3 mps 753 mmHg 65%
    11:00 +7°C° 0 mm 3 mps 752 mmHg 59%
    12:00 +8°C° 0 mm 3 mps 752 mmHg 56%
    13:00 +7°C° 0 mm 4 mps 752 mmHg 53%
    14:00 +8°C° 0 mm 4 mps 752 mmHg 51%
    15:00 +8°C° 0 mm 3 mps 752 mmHg 54%
    16:00 +7°C° 0 mm 3 mps 752 mmHg 58%
    17:00 +5°C° 0 mm 3 mps 752 mmHg 61%
    18:00 +4°C° 0 mm 3 mps 752 mmHg 62%
    19:00 +4°C° 0 mm 3 mps 752 mmHg 63%
    20:00 +3°C° 0 mm 4 mps 752 mmHg 64%
    21:00 +3°C° 0 mm 4 mps 753 mmHg 64%
    22:00 +1°C° 0 mm 4 mps 753 mmHg 63%
    23:00 +1°C° 0 mm 4 mps 753 mmHg 63%

    24 October, Tuesday

    Time Temperature Precipitation Wind Pressure Humidity
    00:00 +1°C° 0 mm 4 mps 753 mmHg 61%
    01:00 +1°C° 0 mm 4 mps 754 mmHg 60%
    02:00 +1°C° 0 mm 4 mps 754 mmHg 59%
    03:00 0°C° 0 mm 4 mps 754 mmHg 58%
    04:00 0°C° 0 mm 4 mps 754 mmHg 57%
    05:00 0°C° 0 mm 4 mps 754 mmHg 56%
    06:00 0°C° 0 mm 5 mps 755 mmHg 55%
    07:00 0°C° 0 mm 5 mps 755 mmHg 55%
    08:00 0°C° 0 mm 5 mps 755 mmHg 54%
    09:00 +1°C° 0 mm 6 mps 756 mmHg 51%
    10:00 +2°C° 0 mm 6 mps 756 mmHg 48%
    11:00 +3°C° 0 mm 6 mps 756 mmHg 45%
    12:00 +3°C° 0 mm 6 mps 756 mmHg 45%
    13:00 +4°C° 0 mm 6 mps 756 mmHg 45%
    14:00 +4°C° 0 mm 6 mps 756 mmHg 44%
    15:00 +5°C° 0 mm 5 mps 757 mmHg 47%
    16:00 +3°C° 0 mm 5 mps 757 mmHg 49%
    17:00 +2°C° 0 mm 5 mps 757 mmHg 52%
    18:00 +2°C° 0 mm 5 mps 757 mmHg 52%
    19:00 +2°C° 0 mm 5 mps 758 mmHg 52%
    20:00 +2°C° 0 mm 5 mps 758 mmHg 52%
    21:00 +2°C° 0 mm 5 mps 758 mmHg 52%
    22:00 +2°C° 0 mm 5 mps 758 mmHg 53%
    23:00 +1°C° 0 mm 4 mps 759 mmHg 54%

    25 October, Wednesday

    Time Temperature Precipitation Wind Pressure Humidity
    00:00 +1°C° 0 mm 5 mps 759 mmHg 55%
    01:00 +1°C° 0 mm 5 mps 759 mmHg 55%
    02:00 +1°C° 0 mm 5 mps 759 mmHg 56%
    03:00 +1°C° 0 mm 5 mps 759 mmHg 57%
    04:00 +1°C° 0 mm 5 mps 759 mmHg 58%
    05:00 +1°C° 0 mm 5 mps 759 mmHg 58%
    06:00 +1°C° 0 mm 5 mps 759 mmHg 58%
    07:00 +1°C° 0 mm 5 mps 759 mmHg 58%
    08:00 +1°C° 0 mm 5 mps 759 mmHg 57%
    09:00 +1°C° 0 mm 5 mps 759 mmHg 55%
    10:00 +1°C° 0 mm 5 mps 760 mmHg 54%
    11:00 +2°C° 0 mm 5 mps 760 mmHg 52%
    12:00 +2°C° 0.1 mm 5 mps 759 mmHg 52%
    13:00 +2°C° 0.1 mm 5 mps 759 mmHg 52%
    14:00 +2°C° 0.1 mm 5 mps 759 mmHg 52%
    15:00 +2°C° 0.2 mm 5 mps 759 mmHg 54%
    16:00 +1°C° 0.2 mm 5 mps 759 mmHg 55%
    17:00 +1°C° 0.2 mm 5 mps 759 mmHg 57%
    18:00 +1°C° 0.3 mm 5 mps 759 mmHg 59%
    19:00 +1°C° 0.3 mm 5 mps 759 mmHg 62%
    20:00 0°C° 0.3 mm 5 mps 759 mmHg 64%
    21:00 0°C° 0.4 mm 5 mps 759 mmHg 67%
    22:00 0°C° 0.4 mm 5 mps 759 mmHg 70%
    23:00 0°C° 0.4 mm 5 mps 759 mmHg 74%

    26 October, Thursday

    Time Temperature Precipitation Wind Pressure Humidity
    00:00 -1°C° 0.4 mm 5 mps 758 mmHg 76%
    01:00 -1°C° 0.4 mm 5 mps 758 mmHg 79%
    02:00 -1°C° 0.4 mm 5 mps 758 mmHg 81%
    03:00 -2°C° 0.5 mm 6 mps 757 mmHg 83%
    04:00 -2°C° 0.5 mm 6 mps 757 mmHg 84%
    05:00 -2°C° 0.5 mm 6 mps 757 mmHg 86%
    06:00 -2°C° 0.4 mm 6 mps 757 mmHg 87%
    07:00 -3°C° 0.4 mm 7 mps 757 mmHg 87%
    08:00 -3°C° 0.4 mm 7 mps 756 mmHg 88%
    09:00 -2°C° 0.2 mm 7 mps 756 mmHg 88%
    10:00 -2°C° 0.2 mm 7 mps 756 mmHg 88%
    11:00 -2°C° 0.2 mm 6 mps 756 mmHg 88%
    12:00 -2°C° 0.2 mm 6 mps 755 mmHg 88%
    13:00 -2°C° 0.2 mm 6 mps 755 mmHg 88%
    14:00 -2°C° 0.2 mm 6 mps 755 mmHg 88%
    15:00 -2°C° 0.1 mm 6 mps 755 mmHg 88%
    16:00 -1°C° 0.1 mm 5 mps 755 mmHg 88%
    17:00 -1°C° 0.1 mm 5 mps 755 mmHg 88%
    18:00 -1°C° 0.1 mm 5 mps 754 mmHg 88%
    19:00 -1°C° 0.1 mm 5 mps 754 mmHg 88%
    20:00 -1°C° 0.1 mm 5 mps 754 mmHg 89%
    21:00 -2°C° 0 mm 5 mps 754 mmHg 88%
    22:00 -2°C° 0 mm 5 mps 753 mmHg 88%
    23:00 -2°C° 0 mm 5 mps 753 mmHg 88%
    Show more